TimePST,TemperatureF,Dew PointF,Humidity,Sea Level PressureIn,VisibilityMPH,Wind Direction,Wind SpeedMPH,Gust SpeedMPH,PrecipitationIn,Events,Conditions,WindDirDegrees,DateUTC
12:53 AM,37.0,34.0,89,30.13,10.0,Calm,Calm,-,N/A,,Overcast,0,2013-01-22 08:53:00
1:53 AM,35.1,33.1,92,30.13,10.0,WSW,4.6,-,N/A,,Overcast,240,2013-01-22 09:53:00
2:53 AM,36.0,33.1,89,30.12,10.0,Calm,Calm,-,N/A,,Overcast,0,2013-01-22 10:53:00
3:53 AM,37.4,33.8,87,30.10,10.0,SE,5.8,-,N/A,,Overcast,140,2013-01-22 11:53:00
4:53 AM,36.0,33.1,89,30.10,10.0,SE,5.8,-,N/A,,Overcast,140,2013-01-22 12:53:00
5:53 AM,36.0,34.0,93,30.09,10.0,South,4.6,-,N/A,,Overcast,170,2013-01-22 13:53:00
6:53 AM,36.0,34.0,93,30.09,10.0,SSE,3.5,-,N/A,,Overcast,150,2013-01-22 14:53:00
7:53 AM,36.0,34.0,93,30.07,10.0,SSE,3.5,-,N/A,,Overcast,160,2013-01-22 15:53:00
8:53 AM,37.0,34.0,89,30.07,10.0,SE,4.6,-,N/A,,Overcast,140,2013-01-22 16:53:00
9:53 AM,37.0,34.0,89,30.08,10.0,SSE,3.5,-,N/A,,Overcast,150,2013-01-22 17:53:00
10:53 AM,37.9,35.1,89,30.07,10.0,East,3.5,-,N/A,,Overcast,100,2013-01-22 18:53:00
11:53 AM,37.9,34.0,86,30.06,10.0,SE,4.6,-,N/A,,Overcast,130,2013-01-22 19:53:00
12:53 PM,37.9,34.0,86,30.03,10.0,ESE,4.6,-,N/A,,Overcast,120,2013-01-22 20:53:00
1:53 PM,37.9,34.0,86,30.01,10.0,ESE,5.8,-,N/A,,Overcast,110,2013-01-22 21:53:00
2:53 PM,37.9,34.0,86,30.00,10.0,ESE,3.5,-,N/A,,Overcast,110,2013-01-22 22:53:00
3:53 PM,37.9,34.0,86,29.97,10.0,ESE,3.5,-,N/A,,Overcast,120,2013-01-22 23:53:00
4:53 PM,37.9,33.1,83,29.97,10.0,Calm,Calm,-,N/A,,Overcast,0,2013-01-23 00:53:00
5:46 PM,37.0,33.1,86,29.95,10.0,South,3.5,-,N/A,,Scattered Clouds,190,2013-01-23 01:46:00
5:53 PM,36.0,33.1,89,29.96,10.0,Calm,Calm,-,N/A,,Partly Cloudy,0,2013-01-23 01:53:00
6:53 PM,36.0,33.1,89,29.95,10.0,SW,3.5,-,N/A,,Clear,220,2013-01-23 02:53:00
7:53 PM,36.0,33.1,89,29.95,10.0,SSW,3.5,-,N/A,,Clear,210,2013-01-23 03:53:00
8:53 PM,36.0,33.1,89,29.93,10.0,Calm,Calm,-,N/A,,Overcast,0,2013-01-23 04:53:00
9:53 PM,36.0,33.1,89,29.93,10.0,Calm,Calm,-,N/A,,Overcast,0,2013-01-23 05:53:00
10:53 PM,37.0,33.1,86,29.94,10.0,Calm,Calm,-,N/A,,Overcast,0,2013-01-23 06:53:00
11:53 PM,37.0,33.1,86,29.94,10.0,Variable,4.6,-,N/A,,Overcast,0,2013-01-23 07:53:00